SCP
0 0 0 0 0 0 0 0 0 0 0 0 0 0 1 1 1 1 1 1 2 2 3 3 3 3 2 2 1 2 2 2 2 2 2 1 1 1 1 1 1 1 1 1
0 0 0 0 0 0 0 0 0 0 0 0 0 1 1 1 1 1 1 2 2 3 3 3 3 3 2 2 1 2 2 2 2 2 2 1 1 1 1 1 1 1 1 1
0 0 0 0 0 0 0 0 0 0 0 0 0 0 1 1 1 1 2 2 3 4 4 4 3 3 3 2 2 1 2 2 2 1 1 1 1 1 1 1 1 1 1 1
0 0 0 0 0 0 0 0 0 0 0 0 0 0 1 1 1 1 2 2 3 4 4 4 4 3 3 2 1 1 2 2 2 1 1 1 1 1 1 1 1 1 1 1
0 0 0 0 0 0 0 0 0 0 0 0 0 0 0 1 1 1 2 2 2 3 4 4 4 3 3 2 1 1 2 2 2 2 2 2 1 1 1 2 2 1 2 2
0 0 0 0 0 0 0 0 0 0 0 0 0 0 0 1 1 1 2 2 2 3 3 3 3 3 2 2 1 1 2 2 2 2 2 2 2 2 2 2 2 2 2 2
0 0 0 0 0 0 0 0 0 0 0 0 0 0 0 0 1 1 1 1 2 3 3 3 2 2 2 2 2 2 2 2 2 2 2 2 2 2 2 2 2 2 2 3
0 0 0 1 0 0 0 0 0 0 0 0 0 0 0 0 0 1 1 1 2 3 3 2 2 2 2 2 2 2 3 2 2 2 2 2 2 2 2 2 2 2 3 3
0 0 0 1 1 1 0 0 0 0 0 0 0 0 0 0 0 1 1 1 2 3 3 2 2 2 2 2 3 3 4 5 5 4 3 3 3 2 2 2 2 3 3 3
0 0 0 1 1 1 1 0 0 0 0 0 0 0 0 0 1 1 1 1 2 2 2 2 2 3 3 4 4 5 6 7 7 6 5 4 3 3 3 3 3 3 3 2
0 0 0 1 1 1 1 1 0 0 0 0 0 0 0 0 1 1 1 2 2 2 2 2 3 3 4 6 7 7 7 6 6 6 5 4 4 4 3 3 3 3 2 2
0 0 0 0 0 1 1 1 0 0 0 0 0 0 0 0 1 1 1 2 2 2 2 2 3 3 5 6 7 8 7 6 5 4 4 4 4 4 3 3 3 3 3 2
0 0 0 0 0 1 1 1 0 0 0 0 0 0 0 0 1 1 1 2 2 2 2 3 3 3 4 5 7 8 9 7 5 4 3 3 3 3 3 3 3 3 3 3
0 0 0 0 0 0 1 0 0 0 0 0 0 0 0 1 1 1 2 2 3 3 3 4 4 4 4 5 6 7 8 8 6 4 3 3 3 3 3 3 3 3 3 3
0 0 0 0 0 0 0 0 0 0 0 0 0 0 0 1 1 1 2 3 3 3 5 7 6 5 4 4 4 5 6 7 6 5 5 5 5 4 4 3 3 3 3 3
0 0 0 0 0 0 0 0 0 0 0 0 0 0 1 1 1 2 2 3 4 3 4 7 8 7 5 4 4 4 5 6 6 6 7 7 6 5 4 4 3 3 3 3
0 0 0 0 0 0 0 0 0 0 0 0 1 1 1 1 1 2 3 4 4 3 3 5 7 7 5 4 4 4 4 5 7 8 9 8 6 5 4 4 3 4 4 4
1 1 1 0 0 0 0 0 0 1 1 1 1 1 1 1 2 2 3 4 4 4 4 4 5 5 5 5 4 4 4 6 8 10 11 10 9 7 5 4 4 4 4 4
1 1 1 0 0 0 0 0 0 1 1 1 1 1 2 1 1 2 3 4 5 6 5 4 4 5 5 5 4 4 5 7 10 12 12 11 10 9 6 5 4 4 4 4
1 1 0 0 0 0 0 0 0 1 1 1 1 1 2 2 2 2 3 5 6 6 5 5 5 6 6 5 5 5 5 7 9 12 12 11 10 9 8 6 5 5 5 5
1 1 0 0 0 0 0 1 1 1 2 2 2 2 2 2 2 3 4 5 6 6 5 6 7 8 8 7 5 5 5 6 7 9 10 9 9 10 9 7 6 6 6 6
0 0 0 0 0 1 1 1 2 3 4 3 3 2 2 2 3 4 4 5 5 5 6 7 9 10 10 8 6 5 5 6 6 7 8 9 10 10 9 8 7 7 6 6
1 1 1 1 1 1 2 3 4 5 5 5 4 3 3 3 4 5 5 5 5 5 6 9 11 12 11 9 7 6 6 6 6 7 7 8 9 10 9 9 8 7 6 6
1 1 1 2 2 2 2 3 4 5 5 5 4 4 3 4 5 5 5 5 6 6 7 9 11 12 11 9 7 6 6 6 7 7 7 8 8 10 11 10 9 8 7 6
2 2 2 2 2 2 2 3 3 4 4 4 4 3 3 4 4 5 6 6 7 7 7 9 11 11 10 8 7 6 6 7 7 8 8 8 8 10 11 11 10 8 7 6
2 2 2 2 3 3 3 3 3 3 3 3 3 3 3 3 4 5 6 7 7 7 7 9 11 11 10 8 6 5 6 7 8 8 8 8 8 9 11 11 10 8 6 5
Wind_Speed
7 9 10 9 7 3 5 5 4 4 5 6 5 4 8 11 11 11 11 11 10 9 9 9 9 8 8 8 7 7 6 5 4 3 3 2 2 2 2 2 1 2 2 2
9 10 8 7 7 6 7 7 6 6 4 5 4 5 6 10 12 11 11 11 11 11 10 10 10 9 9 9 8 8 8 6 6 4 3 2 2 2 2 2 1 2 2 2
13 7 8 9 10 9 8 7 6 6 6 6 5 7 8 9 10 10 11 11 11 11 12 12 11 10 10 10 9 7 7 7 6 5 4 3 3 3 2 2 2 2 2 2
10 6 9 11 11 11 9 6 6 7 7 4 5 3 7 9 10 11 12 12 12 12 12 12 12 11 11 10 9 8 7 7 6 6 5 5 3 3 2 2 2 2 2 2
9 10 12 12 10 9 5 5 6 7 7 6 6 6 5 8 8 10 12 13 12 12 12 12 12 11 10 10 9 8 8 7 7 6 6 5 5 4 2 2 2 3 2 2
7 7 8 8 6 7 8 8 6 7 9 9 5 7 3 4 4 5 8 11 12 12 12 12 11 10 10 10 9 8 8 8 7 7 6 6 5 4 3 3 3 3 2 2
10 9 7 7 10 10 11 10 8 9 8 6 4 7 3 1 1 3 5 8 10 11 12 12 12 11 11 11 10 9 9 8 7 7 6 6 6 5 5 4 3 3 2 1
14 13 12 10 11 11 13 14 9 7 7 6 7 6 2 2 2 3 4 6 7 10 11 11 12 11 11 11 10 10 8 7 7 6 6 5 5 4 3 3 3 2 2 1
12 11 10 8 8 10 13 12 9 9 7 7 6 5 5 4 5 5 5 7 7 8 9 10 11 11 11 10 10 9 9 8 7 6 6 5 5 3 2 2 2 1 1 1
8 9 11 9 8 5 8 10 8 10 9 10 8 9 6 7 7 6 6 6 7 8 9 9 10 10 9 9 9 8 8 7 7 6 5 4 4 4 3 2 1 0 0 0
10 10 11 12 12 13 10 12 10 8 9 10 8 5 3 4 4 5 6 6 7 8 8 9 9 10 9 9 9 9 8 8 7 6 5 5 5 4 3 2 1 1 1 1
10 10 10 12 6 6 11 11 12 10 8 9 9 3 6 3 4 5 5 6 7 7 7 8 9 10 10 10 9 9 8 8 7 7 6 5 5 5 4 3 2 2 2 1
9 9 11 12 11 10 11 11 12 11 8 9 11 5 7 4 4 5 5 6 7 7 8 8 8 9 9 9 9 9 8 8 7 7 7 6 5 5 4 4 3 2 2 2
7 10 13 13 11 13 13 13 13 13 10 10 12 7 5 5 5 5 6 7 8 8 8 8 8 8 8 8 8 8 8 8 8 7 7 7 6 5 5 4 4 3 3 2
7 12 12 10 8 11 14 15 15 15 13 12 10 10 6 4 4 5 6 8 8 8 8 8 8 8 8 8 8 8 8 8 8 8 7 7 6 6 5 5 4 4 3 3
5 8 11 11 10 12 14 15 16 16 14 13 11 10 3 3 4 5 6 7 8 8 8 8 8 8 8 8 8 8 9 9 9 8 8 7 7 7 6 6 5 4 4 3
7 7 11 12 12 12 16 16 16 15 14 14 13 9 5 5 5 6 6 7 7 8 8 8 9 8 8 8 8 9 9 9 9 9 8 8 7 7 6 6 6 5 4 4
7 8 8 10 10 16 10 9 12 13 13 13 10 6 6 5 5 5 5 6 6 7 8 8 8 8 8 8 8 8 9 10 9 9 8 8 8 7 6 6 6 5 4 3
9 9 9 10 13 13 7 8 10 12 12 9 9 7 5 4 5 6 4 4 5 7 7 7 7 8 8 8 9 9 9 10 10 9 8 8 8 8 7 6 6 5 4 4
9 9 10 11 14 14 8 7 6 9 11 6 6 6 6 7 8 5 5 5 5 6 6 7 7 7 8 8 9 10 10 10 10 9 9 8 8 8 7 7 6 5 4 4
13 11 14 13 13 9 4 7 8 12 6 4 6 6 7 7 4 1 4 5 6 6 7 7 7 6 7 8 9 9 9 9 8 9 9 8 8 8 7 7 6 5 5 4
12 12 13 12 13 9 6 8 8 2 0 3 4 5 6 4 3 3 4 5 6 7 7 7 6 6 6 7 9 9 9 8 8 8 8 8 8 7 7 7 6 6 6 6
8 6 6 7 5 2 4 3 1 1 3 3 4 4 5 5 5 4 5 5 6 7 7 6 7 7 6 6 7 8 7 8 8 8 8 8 8 7 7 8 8 7 6 5
5 3 5 4 4 4 3 2 2 3 4 4 4 4 5 5 5 5 5 5 5 6 6 6 7 7 6 6 6 6 7 8 8 8 8 8 8 8 7 6 6 6 6 5
4 5 6 6 4 4 4 2 2 2 3 3 3 4 4 5 5 5 5 5 5 5 6 6 6 6 6 6 6 6 7 7 8 8 7 7 7 7 7 6 3 4 3 2
5 5 6 5 3 4 3 3 3 3 3 2 3 3 3 4 4 4 4 4 5 5 6 6 6 6 6 6 6 7 7 7 8 8 8 7 7 6 6 6 5 2 1 3
Wind_Direction
191 206 202 197 215 224 198 196 171 133 147 201 205 179 162 174 188 188 187 187 188 192 183 179 182 183 181 182 186 189 193 187 201 209 219 217 213 220 230 226 211 243 258 245
195 209 200 190 195 202 201 200 178 147 162 220 210 206 180 184 197 198 194 194 191 189 186 184 186 187 189 188 192 194 196 195 205 205 221 237 266 254 244 266 222 248 255 256
209 179 174 191 191 200 205 213 196 166 167 202 226 196 184 188 202 203 204 203 198 194 191 188 190 192 192 193 195 196 197 196 205 209 211 211 215 242 232 236 227 246 258 262
209 168 183 193 198 209 204 208 202 188 209 185 239 216 165 179 194 203 206 205 202 197 196 194 192 193 194 194 193 194 194 198 201 207 218 221 232 246 250 252 247 244 246 256
188 184 193 201 199 212 196 171 196 210 233 236 214 258 151 168 197 199 202 204 202 199 197 196 194 192 192 193 192 188 190 196 198 205 212 222 233 236 229 233 234 253 243 254
174 182 205 198 180 187 153 158 176 218 237 234 229 261 208 163 193 181 185 197 199 197 194 194 191 187 190 189 189 185 186 193 196 200 206 217 228 239 248 244 239 238 230 243
184 183 181 183 168 172 193 195 199 208 218 224 198 246 247 118 183 204 189 188 192 191 190 189 189 186 187 187 185 184 185 189 192 196 204 210 221 227 233 244 237 253 255 247
193 188 185 194 203 191 206 220 231 233 224 204 187 235 214 136 196 205 191 184 181 182 183 186 187 185 186 184 183 183 181 185 188 192 199 206 215 228 229 230 254 244 264 270
201 189 169 190 210 214 202 223 243 248 249 249 208 212 213 188 199 190 180 173 173 176 176 180 181 182 181 178 178 179 176 178 181 186 189 193 201 215 226 210 234 250 241 222
213 193 172 171 184 209 234 211 216 236 238 238 226 225 221 194 194 185 184 175 167 168 169 173 175 177 176 173 170 169 167 166 170 174 181 170 174 175 184 193 164 163 167 84
216 203 177 186 205 194 193 206 223 230 246 249 240 220 162 194 188 188 179 172 166 167 165 166 168 168 167 166 163 163 164 164 164 166 165 165 160 155 152 146 144 146 130 114
212 216 199 196 192 235 218 215 212 223 223 246 261 207 119 168 184 190 177 165 160 163 159 158 158 160 162 163 164 163 164 164 162 159 157 156 152 148 146 140 133 122 115 117
196 214 198 193 191 201 211 210 219 230 228 234 243 211 127 159 177 180 174 161 154 157 154 153 153 157 162 164 164 163 165 162 160 157 154 151 151 149 148 144 137 134 132 127
227 218 226 221 204 193 202 205 210 221 228 229 239 237 168 181 185 178 173 167 161 157 157 155 156 158 160 163 164 163 163 161 159 158 156 153 154 152 148 144 142 141 140 135
225 218 225 240 224 206 210 209 210 223 235 243 237 238 216 190 190 180 174 171 164 161 161 161 161 158 160 160 163 166 164 163 162 161 158 154 151 147 146 145 143 141 142 136
224 224 216 221 220 218 221 217 216 223 230 239 242 240 216 188 185 176 175 175 172 167 165 164 163 161 162 162 162 164 165 163 163 164 160 154 154 150 151 152 151 148 144 134
204 211 215 218 209 218 224 219 219 221 227 232 234 233 191 192 195 192 186 185 179 170 164 166 168 166 164 164 165 165 164 162 164 164 160 160 158 155 157 157 153 149 147 143
217 220 222 219 203 225 227 215 220 224 227 231 238 227 213 222 211 204 193 188 182 169 164 165 168 166 165 163 163 164 160 163 165 165 163 162 162 158 159 159 154 153 154 153
214 217 224 221 219 224 207 203 211 217 221 220 229 225 221 215 204 195 181 183 176 168 162 162 165 164 162 164 162 162 162 165 167 168 167 167 168 162 165 164 159 158 160 157
194 217 227 220 228 226 203 176 202 219 218 202 218 219 216 214 227 197 161 169 162 156 153 155 157 158 160 163 164 166 167 169 172 171 169 167 169 168 168 165 162 160 163 162
184 200 219 223 227 229 179 164 187 218 211 180 215 217 215 222 262 119 152 161 160 157 155 152 151 152 157 163 170 174 173 175 173 168 166 168 170 170 168 164 164 168 171 163
198 199 207 220 227 216 156 182 207 243 55 206 220 218 218 213 202 180 159 157 157 157 156 152 149 147 151 165 172 175 176 172 168 168 169 171 171 171 165 166 169 175 176 169
222 231 215 220 226 100 165 200 179 287 247 238 235 229 212 206 200 184 169 160 159 159 159 157 152 150 154 169 176 174 168 165 166 169 172 173 173 170 170 174 174 181 189 190
194 249 232 218 201 193 189 211 231 251 257 255 238 218 207 203 193 183 173 167 167 167 165 163 161 159 162 170 172 168 164 167 170 174 175 173 175 174 173 181 185 192 190 192
210 212 215 216 210 207 202 228 252 263 256 238 222 219 212 196 192 187 180 176 175 172 168 168 169 166 164 167 168 163 161 168 174 173 176 179 181 176 175 182 185 201 184 195
217 225 232 220 207 234 227 244 251 239 225 217 205 203 206 194 187 184 177 175 173 170 167 171 171 166 163 165 168 168 167 173 179 180 181 184 184 178 181 177 171 92 123 131